TimeAKST,TemperatureF,Dew PointF,Humidity,Sea Level PressureIn,VisibilityMPH,Wind Direction,Wind SpeedMPH,Gust SpeedMPH,PrecipitationIn,Events,Conditions,WindDirDegrees,DateUTC
12:16 AM,-2.2,-4.0,92,30.70,10.0,Calm,Calm,-,N/A,,Clear,0,2014-02-04 09:16:00
12:36 AM,-2.2,-11.2,66,30.70,10.0,Calm,Calm,-,N/A,,Clear,0,2014-02-04 09:36:00
12:56 AM,-2.2,-2.2,100,30.71,10.0,Calm,Calm,-,N/A,,Clear,0,2014-02-04 09:56:00
1:16 AM,-0.4,-4.0,85,30.71,10.0,Calm,Calm,-,N/A,,Clear,0,2014-02-04 10:16:00
1:36 AM,-0.4,-5.8,78,30.71,10.0,Calm,Calm,-,N/A,,Clear,0,2014-02-04 10:36:00
1:56 AM,-5.8,-18.4,55,30.71,10.0,Calm,Calm,-,N/A,,Clear,0,2014-02-04 10:56:00
2:16 AM,-7.6,-9.4,92,30.71,10.0,Calm,Calm,-,N/A,,Clear,0,2014-02-04 11:16:00
2:36 AM,-5.8,-18.4,55,30.71,10.0,Calm,Calm,-,N/A,,Clear,0,2014-02-04 11:36:00
2:56 AM,-7.6,-14.8,71,30.72,10.0,Calm,Calm,-,N/A,,Clear,0,2014-02-04 11:56:00
3:16 AM,-4.0,-4.0,100,30.71,10.0,Calm,Calm,-,N/A,,Clear,0,2014-02-04 12:16:00
3:36 AM,-5.8,-9999,N/A,30.70,10.0,Calm,Calm,-,N/A,,Clear,0,2014-02-04 12:36:00
3:56 AM,-7.6,-9999,N/A,30.70,10.0,Calm,Calm,-,N/A,,Clear,0,2014-02-04 12:56:00
4:16 AM,-9.4,-9999,N/A,30.70,10.0,Calm,Calm,-,N/A,,Clear,0,2014-02-04 13:16:00
4:36 AM,-7.6,-9999,N/A,30.70,10.0,Calm,Calm,-,N/A,,Clear,0,2014-02-04 13:36:00
4:56 AM,-7.6,-25.6,41,30.70,10.0,Calm,Calm,-,N/A,,Clear,0,2014-02-04 13:56:00
5:16 AM,-2.2,-9999,N/A,30.70,10.0,Calm,Calm,-,N/A,,Clear,0,2014-02-04 14:16:00
5:36 AM,-4.0,-9999,N/A,30.69,10.0,Calm,Calm,-,N/A,,Clear,0,2014-02-04 14:36:00
5:56 AM,-4.0,-27.4,32,30.69,10.0,Calm,Calm,-,N/A,,Clear,0,2014-02-04 14:56:00
6:16 AM,-7.6,-29.2,34,30.69,10.0,Calm,Calm,-,N/A,,Clear,0,2014-02-04 15:16:00
6:36 AM,-7.6,-9999,N/A,30.70,10.0,Calm,Calm,-,N/A,,Clear,0,2014-02-04 15:36:00
6:56 AM,-7.6,-23.8,45,30.69,10.0,Calm,Calm,-,N/A,,Clear,0,2014-02-04 15:56:00
7:16 AM,-2.2,-23.8,35,30.69,10.0,Calm,Calm,-,N/A,,Clear,0,2014-02-04 16:16:00
7:36 AM,-11.2,-9999,N/A,30.69,10.0,Calm,Calm,-,N/A,,Clear,0,2014-02-04 16:36:00
7:56 AM,-11.2,-9999,N/A,30.69,10.0,Calm,Calm,-,N/A,,Clear,0,2014-02-04 16:56:00
8:16 AM,-11.2,-9999,N/A,30.69,10.0,Calm,Calm,-,N/A,,Clear,0,2014-02-04 17:16:00
8:36 AM,-11.2,-9999,N/A,30.69,10.0,Calm,Calm,-,N/A,,Clear,0,2014-02-04 17:36:00
8:56 AM,-11.2,-9999,N/A,30.69,10.0,Calm,Calm,-,N/A,,Clear,0,2014-02-04 17:56:00
9:16 AM,-7.6,-22.0,50,30.70,10.0,Calm,Calm,-,N/A,,Clear,0,2014-02-04 18:16:00
9:36 AM,-7.6,-9.4,92,30.69,10.0,Calm,Calm,-,N/A,,Clear,0,2014-02-04 18:36:00
9:56 AM,-7.6,-29.2,34,30.69,6.0,Calm,Calm,-,N/A,,Clear,0,2014-02-04 18:56:00
10:16 AM,-7.6,-79.6,4,30.69,8.0,Calm,Calm,-,N/A,,Clear,0,2014-02-04 19:16:00
10:36 AM,-9.4,-9999,N/A,30.69,10.0,Calm,Calm,-,N/A,,Clear,0,2014-02-04 19:36:00
10:56 AM,-7.6,-9999,N/A,30.68,10.0,Calm,Calm,-,N/A,,Clear,0,2014-02-04 19:56:00
11:16 AM,-7.6,-9999,N/A,30.68,10.0,Calm,Calm,-,N/A,,Clear,0,2014-02-04 20:16:00
11:36 AM,-7.6,-29.2,34,30.68,10.0,Calm,Calm,-,N/A,,Clear,0,2014-02-04 20:36:00
11:56 AM,-5.8,-20.2,50,30.68,10.0,Calm,Calm,-,N/A,,Clear,0,2014-02-04 20:56:00
12:16 PM,-2.2,-2.2,100,30.68,10.0,Calm,Calm,-,N/A,,Clear,0,2014-02-04 21:16:00
12:36 PM,-2.2,-23.8,35,30.67,10.0,Calm,Calm,-,N/A,,Clear,0,2014-02-04 21:36:00
12:56 PM,-2.2,-25.6,32,30.67,10.0,Calm,Calm,-,N/A,,Clear,0,2014-02-04 21:56:00
1:16 PM,-2.2,-27.4,29,30.66,10.0,Calm,Calm,-,N/A,,Clear,0,2014-02-04 22:16:00
1:36 PM,-0.4,-25.6,30,30.66,10.0,Calm,Calm,-,N/A,,Clear,0,2014-02-04 22:36:00
1:56 PM,-2.2,-23.8,35,30.66,10.0,Calm,Calm,-,N/A,,Clear,0,2014-02-04 22:56:00
2:16 PM,-5.8,-20.2,50,30.66,10.0,Calm,Calm,-,N/A,,Clear,0,2014-02-04 23:16:00
2:36 PM,-5.8,-11.2,77,30.65,10.0,Calm,Calm,-,N/A,,Clear,0,2014-02-04 23:36:00
2:56 PM,-5.8,-9999,N/A,30.64,10.0,Calm,Calm,-,N/A,,Clear,0,2014-02-04 23:56:00
3:16 PM,-7.6,-9999,N/A,30.64,10.0,Calm,Calm,-,N/A,,Clear,0,2014-02-05 00:16:00
3:36 PM,-7.6,-9999,N/A,30.64,10.0,Calm,Calm,-,N/A,,Clear,0,2014-02-05 00:36:00
3:56 PM,-9.4,-9999,N/A,30.64,3.0,Calm,Calm,-,N/A,,Clear,0,2014-02-05 00:56:00
4:16 PM,-7.6,-27.4,38,30.64,10.0,Calm,Calm,-,N/A,,Clear,0,2014-02-05 01:16:00
4:36 PM,-5.8,-22.0,46,30.63,10.0,Calm,Calm,-,N/A,,Clear,0,2014-02-05 01:36:00
4:56 PM,-5.8,-23.8,42,30.62,10.0,Calm,Calm,-,N/A,,Clear,0,2014-02-05 01:56:00
5:16 PM,-9.4,-9999,N/A,30.62,10.0,Calm,Calm,-,N/A,,Clear,0,2014-02-05 02:16:00
5:36 PM,-9.4,-9999,N/A,30.62,10.0,Calm,Calm,-,N/A,,Clear,0,2014-02-05 02:36:00
5:56 PM,-9.4,-9999,N/A,30.62,10.0,Calm,Calm,-,N/A,,Clear,0,2014-02-05 02:56:00
6:16 PM,-5.8,-9999,N/A,30.62,10.0,Calm,Calm,-,N/A,,Clear,0,2014-02-05 03:16:00
6:36 PM,-11.2,-9999,N/A,30.62,10.0,Calm,Calm,-,N/A,,Clear,0,2014-02-05 03:36:00
6:56 PM,-11.2,-27.4,45,30.62,10.0,Calm,Calm,-,N/A,,Clear,0,2014-02-05 03:56:00
7:16 PM,-9.4,-23.8,49,30.62,10.0,Calm,Calm,-,N/A,,Clear,0,2014-02-05 04:16:00
7:36 PM,-11.2,-9999,N/A,30.61,9.0,Calm,Calm,-,N/A,,Clear,0,2014-02-05 04:36:00
7:56 PM,-14.8,-9999,N/A,30.60,9.0,Calm,Calm,-,N/A,,Clear,0,2014-02-05 04:56:00
8:16 PM,-9.4,-9999,N/A,30.60,10.0,Calm,Calm,-,N/A,,Clear,0,2014-02-05 05:16:00
8:36 PM,-13.0,-9999,N/A,30.60,9.0,Calm,Calm,-,N/A,,Clear,0,2014-02-05 05:36:00
8:56 PM,-11.2,-9999,N/A,30.59,10.0,Calm,Calm,-,N/A,,Clear,0,2014-02-05 05:56:00
9:16 PM,-9.4,-29.2,37,30.59,10.0,Calm,Calm,-,N/A,,Clear,0,2014-02-05 06:16:00
9:36 PM,-11.2,-29.2,41,30.58,10.0,Calm,Calm,-,N/A,,Clear,0,2014-02-05 06:36:00
9:56 PM,-14.8,-9999,N/A,30.58,10.0,Calm,Calm,-,N/A,,Clear,0,2014-02-05 06:56:00
10:16 PM,-11.2,-16.6,77,30.57,10.0,Calm,Calm,-,N/A,,Clear,0,2014-02-05 07:16:00
10:36 PM,-14.8,-9999,N/A,30.57,9.0,Calm,Calm,-,N/A,,Clear,0,2014-02-05 07:36:00
10:56 PM,-11.2,-23.8,54,30.56,10.0,Calm,Calm,-,N/A,,Clear,0,2014-02-05 07:56:00
11:16 PM,-9.4,-9999,N/A,30.56,10.0,Calm,Calm,-,N/A,,Clear,0,2014-02-05 08:16:00
11:36 PM,-11.2,-9999,N/A,30.56,8.0,Calm,Calm,-,N/A,,Clear,0,2014-02-05 08:36:00
11:56 PM,-13.0,-9999,N/A,30.55,10.0,Calm,Calm,-,N/A,,Clear,0,2014-02-05 08:56:00